This is the latest recevied weather packets stored in our database for station/object ZS2JO. If no packets are shown the sender has not sent any weather packets the latest 10 day(s).
| Time | Temp. | Humidity | Pressure | Rain* | Wind** | Luminosity | Snow |
|---|---|---|---|---|---|---|---|
| 1778335397 | 18.89° C | 65% | 1012.4 hPa | 0 mm | - | 130 W/m² | - |
| 1778335095 | 18.89° C | 67% | 1012.6 hPa | 0 mm | - | 142 W/m² | - |
| 1778334792 | 19.44° C | 66% | 1012.5 hPa | 0 mm | - | 154 W/m² | - |
| 1778334490 | 19.44° C | 65% | 1012.6 hPa | 0 mm | - | 170 W/m² | - |
| 1778334187 | 19.44° C | 65% | 1012.7 hPa | 0 mm | - | 188 W/m² | - |
| 1778333884 | 20° C | 65% | 1012.7 hPa | 0 mm | - | 205 W/m² | - |
| 1778333580 | 20° C | 64% | 1012.5 hPa | 0 mm | - | 220 W/m² | - |
| 1778333279 | 20° C | 64% | 1012.7 hPa | 0 mm | - | 236 W/m² | - |
| 1778332977 | 20° C | 65% | 1012.9 hPa | 0 mm | - | 251 W/m² | - |
| 1778332673 | 20° C | 64% | 1013 hPa | 0 mm | - | 266 W/m² | - |
| 1778332370 | 20° C | 64% | 1012.9 hPa | 0 mm | - | 282 W/m² | - |
| 1778332067 | 20° C | 65% | 1012.8 hPa | 0 mm | - | 298 W/m² | - |
| 1778331762 | 20° C | 65% | 1012.8 hPa | 0 mm | - | 313 W/m² | - |
| 1778331459 | 20° C | 65% | 1012.6 hPa | 0 mm | - | 325 W/m² | - |
| 1778331156 | 20° C | 64% | 1012.8 hPa | 0 mm | - | 338 W/m² | - |
| 1778330852 | 20.56° C | 64% | 1012.7 hPa | 0 mm | - | 351 W/m² | - |
| 1778330549 | 20° C | 65% | 1012.9 hPa | 0 mm | - | 366 W/m² | - |
| 1778330247 | 20° C | 64% | 1012.8 hPa | 0 mm | - | 380 W/m² | - |
| 1778329944 | 20° C | 65% | 1012.8 hPa | 0 mm | - | 395 W/m² | - |
| 1778329640 | 20° C | 66% | 1013.1 hPa | 0 mm | - | 412 W/m² | - |
| 1778329337 | 20.56° C | 64% | 1012.9 hPa | 0 mm | - | 428 W/m² | - |
| 1778329033 | 20.56° C | 67% | 1013 hPa | 0 mm | - | 446 W/m² | - |
| 1778328731 | 20° C | 67% | 1013 hPa | 0 mm | - | 463 W/m² | - |
| 1778328429 | 20° C | 67% | 1013.2 hPa | 0 mm | - | 476 W/m² | - |
| 1778328127 | 20.56° C | 66% | 1013.2 hPa | 0 mm | - | 492 W/m² | - |
* Rain latest hour (hover to see other rain measurements)
** Current wind speed in m/s (hover to see current wind gust speed)